Lid_Strength_Index
3 7 8 9 12 13 15 13 10 11 11 8 7 8 9 8 10 12 3 0 -0 0 -0 -1 -1 -1 -2 -2 -2 -2 -2 -2 -2 -2 -2 -2 -2 -2 -2 -2 -3 -2 -2 -2 -2 -2 -2 -2 -2
6 7 9 11 14 15 15 14 11 11 8 6 6 7 8 11 6 4 3 0 -0 -0 -0 -0 -1 -1 -2 -2 -2 -2 -2 -2 -2 -2 -2 -2 -2 -2 -2 -2 -3 -2 -2 -2 -2 -2 -2 -2 -2
8 8 11 13 15 15 15 12 10 9 6 9 8 6 7 9 5 4 1 -0 -0 -0 -0 -0 -1 -1 -2 -2 -2 -2 -2 -2 -2 -2 -2 -2 -2 -2 -2 -2 -2 -2 -2 -2 -2 -2 -2 -2 -2
10 10 11 13 15 13 12 10 9 9 9 6 7 9 6 4 4 2 0 -0 0 0 -0 -0 -1 -2 -2 -2 -2 -2 -2 -2 -2 -2 -2 -2 -2 -2 -2 -2 -2 -2 -2 -2 -2 -2 -2 -2 -2
11 12 14 15 14 13 11 9 9 9 9 8 7 10 9 4 2 1 1 -0 0 0 0 -0 -1 -1 -2 -2 -2 -2 -2 -2 -2 -2 -2 -2 -2 -2 -2 -2 -2 -2 -2 -2 -2 -2 -2 -2 -2
13 13 15 16 14 12 10 9 9 10 8 8 8 8 9 3 2 2 0 0 0 0 0 -0 1 -0 -1 -1 -2 -2 -2 -2 -2 -2 -2 -2 -2 -2 -2 -2 -2 -2 -2 -2 -2 -2 -2 -2 -2
13 15 16 15 15 13 10 8 11 9 8 8 6 10 7 5 2 1 1 0 0 0 0 0 1 0 0 -1 -1 -1 -2 -2 -2 -2 -2 -2 -2 -2 -2 -2 -2 -2 -2 -2 -2 -2 -2 -2 -2
12 14 16 15 14 13 10 9 9 9 10 5 5 9 9 4 2 1 1 0 1 1 1 2 1 1 0 0 0 -0 -1 -1 -1 -2 -2 -1 -0 -1 -1 -1 -2 -2 -2 -2 -2 -2 -2 -2 -2
11 15 17 14 13 12 10 11 10 8 8 7 6 6 4 3 1 2 2 2 2 1 1 2 2 1 1 0 1 1 -0 -0 -1 -1 -1 2 2 1 0 -0 -2 -2 -2 -1 -1 -2 -2 -1 -0
13 15 14 10 11 11 9 10 9 8 8 10 8 5 3 2 3 3 3 3 3 2 1 1 2 2 1 -0 0 1 0 0 0 1 0 0 1 1 0 1 -1 -2 -2 -2 -1 -2 -1 -0 1
14 14 13 11 10 9 9 10 10 9 9 8 8 6 4 4 3 4 3 3 2 2 1 1 2 2 1 1 1 1 1 1 0 0 0 1 1 1 1 2 1 1 1 1 1 1 1 1 1
14 12 13 11 8 9 9 9 9 10 9 6 5 4 4 4 4 4 3 3 2 2 1 1 0 1 1 1 1 1 1 0 2 1 1 2 2 2 2 2 2 2 2 2 2 2 2 2 1
13 13 11 10 10 10 9 10 10 10 9 5 4 4 5 4 4 3 3 3 2 2 1 1 0 0 0 0 1 1 1 1 1 2 1 2 2 2 2 2 2 2 3 2 3 3 2 2 2
12 13 12 12 11 10 10 12 11 11 5 6 5 5 4 4 4 4 3 3 3 2 2 1 1 1 2 2 0 1 1 1 1 2 2 2 2 2 2 2 2 2 3 3 3 3 3 2 2
10 13 14 13 11 11 10 12 12 11 6 7 6 5 5 4 4 4 3 3 2 2 1 2 1 1 2 2 1 1 1 0 -0 0 1 2 2 2 2 3 3 3 3 3 3 3 4 4 3
13 14 17 15 11 11 12 13 11 10 7 7 7 6 6 5 4 4 3 3 2 2 2 1 1 2 2 2 1 0 -0 1 0 0 1 1 1 1 3 3 3 3 3 3 4 4 4 4 3
13 18 18 15 13 12 13 14 11 11 7 8 7 7 6 5 5 4 4 3 2 2 2 2 2 2 2 1 2 1 0 0 -0 -0 -0 0 0 1 2 2 3 3 3 4 3 3 3 3 4
15 17 17 17 14 13 14 14 13 12 9 7 9 9 8 6 5 4 4 4 3 2 2 1 1 2 2 2 2 1 0 -0 0 0 -0 -0 -0 0 1 1 1 2 2 3 3 3 4 4 4
12 15 16 16 13 13 14 13 13 13 14 12 12 12 11 8 7 9 6 5 5 3 2 2 2 2 2 3 3 1 2 0 0 0 -0 -0 -0 0 1 1 1 1 2 2 3 3 3 3 3
15 16 16 15 13 13 14 14 14 13 13 12 13 13 12 11 11 12 12 9 6 4 3 2 2 2 2 2 3 3 2 0 0 0 0 -0 0 0 1 1 1 2 2 2 2 3 3 3 3
16 14 16 16 15 14 15 15 15 13 13 12 12 13 12 10 10 12 11 11 11 8 5 3 2 2 2 2 2 2 1 1 1 1 0 0 0 1 1 1 1 1 2 2 2 2 3 3 2
16 14 15 16 16 17 15 19 17 14 13 13 12 13 12 12 11 10 9 9 11 11 11 10 4 3 2 2 2 2 2 2 1 1 3 5 4 4 3 2 2 2 2 2 3 2 2 2 3
15 14 14 15 17 16 18 19 17 16 15 14 13 12 12 12 11 10 9 9 9 9 11 11 7 3 2 2 1 2 2 2 2 3 6 6 7 6 6 5 5 5 5 6 5 6 6 6 5
13 14 15 15 16 19 16 17 18 18 15 13 13 12 12 11 10 9 8 8 8 9 10 10 8 3 3 2 1 2 3 3 5 5 7 7 7 8 8 8 8 8 8 8 8 8 8 8 8
14 16 20 20 20 21 18 19 15 16 14 13 12 11 12 11 10 10 9 9 9 9 8 7 6 4 3 3 4 3 3 4 6 6 7 8 9 11 11 10 10 10 10 10 10 10 10 10 11
16 15 20 23 22 22 19 20 17 14 14 13 12 12 12 11 10 10 10 9 9 9 9 8 7 6 6 6 8 7 8 8 9 9 10 11 11 12 11 11 11 11 11 11 11 11 11 12 13
16 17 16 20 24 21 20 19 15 15 13 13 12 12 11 11 10 10 10 10 10 10 10 10 9 9 9 10 10 10 10 11 11 11 12 12 12 12 12 12 13 12 12 12 13 13 13 13 13
15 14 18 19 23 25 22 22 18 16 14 13 13 12 11 11 11 11 11 11 11 11 11 11 10 11 12 11 10 11 12 12 12 12 13 13 13 13 13 13 14 14 14 14 14 14 13 13 13
16 18 17 16 18 21 24 21 16 14 13 12 12 11 11 11 11 11 11 11 11 11 11 12 12 12 12 12 12 12 12 13 13 13 14 13 13 13 14 14 15 15 15 15 14 14 13 14 14
13 15 16 18 20 20 20 20 15 15 14 12 12 11 11 11 11 11 11 12 12 12 12 12 12 12 13 14 14 14 14 14 14 14 14 14 14 14 15 15 15 15 15 15 14 15 14 15 15